#timestamp,LO_Frequency,Hit,StdDev 
1589479215.2,286046995.2,Y
1589479235.1,286046997.0,P
1589479236.0,286046997.0,N
1589479255.8,286046994.9,P
1589479275.6,286046995.4,N
1589479295.5,286046995.5,N
1589479315.3,286046997.8,N
1589479335.2,286046995.5,Y
1589479355.9,286046998.7,P
1589479375.7,286046999.0,N
1589479395.6,286047002.6,N
1589479415.4,286047001.3,N
1589479435.2,286047002.2,N
1589479455.1,286047002.1,N
1589479456.0,286047002.1,N
1589479475.8,286047002.1,N
1589479495.7,286047002.5,N
1589479515.5,286047000.5,N
1589479535.3,286047000.1,N
1589479555.2,286046999.9,N
1589479575.0,286047002.7,N
1589479575.9,286047002.7,N
1589479595.8,286047000.2,N
1589479615.6,286047002.3,N
1589479635.4,286047001.1,N
1589479655.3,286047000.9,N
1589479675.1,286046998.5,N
1589479695.8,286047001.1,N
1589479715.7,286047001.1,N
1589479735.5,286047000.4,N
1589479755.4,286047001.7,N
1589479775.2,286047001.7,N
1589479795.0,286047001.3,N
1589479795.9,286047001.3,N
1589479815.8,286047003.0,N
1589479835.6,286047001.4,N
1589479855.5,286047002.3,N
1589479875.3,286047002.5,N
1589479895.1,286047002.5,N
1589479915.9,286047000.6,N
1589479935.7,286047000.4,N
1589479955.5,286047000.9,N
1589479975.4,286047001.5,N
1589479995.2,286047000.3,N
1589480015.0,286047000.1,N
1589480015.9,286047000.1,N
1589480035.8,286047004.2,Y
1589480055.6,286047001.5,P
1589480075.5,286047003.0,P
1589480095.3,286047005.1,P
1589480115.1,286047005.2,Y
1589480135.9,286047001.4,P
1589480155.7,286047002.5,P
1589480175.6,286047000.6,N
1589480195.4,286047000.9,N
1589480215.2,286047001.0,N
1589480235.1,286047000.7,N
1589480236.0,286047000.7,N
1589480255.8,286047000.9,N
1589480275.6,286047000.2,N
1589480295.5,286047002.6,Y
1589480315.3,286047001.1,P
1589480335.2,286047000.8,P
1589480355.9,286046998.6,P
1589480375.7,286046997.0,N
1589480395.6,286046999.2,N
1589480415.4,286046998.6,N
1589480435.2,286047001.0,N
1589480455.1,286046999.9,N
1589480456.0,286046999.9,N
1589480475.8,286046999.7,N
1589480495.7,286047002.8,N
1589480515.5,286047002.8,N
1589480535.3,286047001.4,N
1589480555.2,286047001.4,N
1589480575.9,286046999.8,N
1589480595.7,286047002.8,N
1589480615.6,286047000.9,N
1589480635.4,286047002.3,N
1589480655.2,286047002.7,N
1589480675.1,286046999.7,N
1589480676.0,286046999.7,N
1589480695.8,286047000.1,N
1589480715.7,286046999.8,N
1589480735.5,286047002.5,N
1589480755.3,286047002.5,N
1589480775.2,286047003.9,N
1589480795.0,286047004.4,N
1589480795.9,286047004.4,N
1589480815.8,286046999.8,N
1589480835.6,286047001.0,N
1589480855.4,286047000.7,N
1589480875.3,286047001.9,N
1589480895.1,286047001.5,N
1589480896.0,286047001.5,N
1589480915.8,286047001.7,N
1589480935.7,286047003.7,N
1589480955.5,286047003.5,N
1589480975.3,286047001.5,N
1589480995.2,286047001.7,N
1589481015.0,286047002.3,N
1589481015.9,286047002.3,N
1589481035.8,286047000.0,N
1589481055.6,286047000.7,N
1589481075.4,286047000.7,N
1589481095.3,286047000.5,N
1589481115.1,286047000.5,N
1589481135.9,286047001.0,N
1589481155.7,286047001.2,N
1589481175.5,286046999.7,N
1589481195.4,286047001.3,N
1589481215.2,286047002.0,N
1589481235.0,286047001.4,N
1589481235.9,286047001.4,N
1589481255.8,286047004.2,Y
1589481275.6,286046999.7,P
1589481295.5,286047002.8,N
1589481315.3,286047001.1,N
1589481335.1,286046998.6,N
1589481355.9,286047000.8,N
1589481375.7,286046998.1,N
1589481395.6,286047001.2,N
1589481415.4,286047002.2,N
1589481435.2,286047001.7,N
1589481455.1,286047001.8,N
1589481456.0,286047001.8,N
1589481475.8,286047001.9,N
1589481495.6,286047000.7,N
1589481515.5,286046999.7,N
1589481535.3,286047000.0,N
1589481555.2,286047000.9,N
1589481575.9,286047001.1,N
1589481595.7,286047001.2,N
1589481615.6,286046998.3,N
1589481635.4,286047000.6,N
1589481655.3,286047000.9,N
1589481675.1,286047000.1,N
1589481676.0,286047000.1,N
1589481695.8,286047000.2,N
1589481715.7,286047002.8,N
1589481735.5,286047001.2,N
1589481755.3,286046998.1,N
1589481775.2,286046999.8,N
1589481795.0,286046999.7,N
1589481795.9,286046999.7,N
1589481815.8,286047001.5,N
1589481835.6,286047002.7,N
1589481855.4,286047002.3,N
1589481875.3,286047002.6,N
1589481895.1,286047000.4,N
1589481915.8,286046999.8,N
1589481935.7,286047001.6,N
1589481955.5,286047003.1,N
1589481975.4,286047005.9,Y
1589481995.2,286047004.4,P
1589482015.0,286046999.8,N
1589482015.9,286046999.8,N
1589482035.8,286047000.6,N
1589482055.6,286047000.8,N
1589482075.4,286047000.2,N
1589482095.3,286047000.3,N
1589482115.1,286047002.6,N
1589482135.9,286046999.8,N
1589482155.7,286047000.7,N
1589482175.5,286046998.1,N
1589482195.4,286046999.0,N
1589482215.2,286047000.2,N
1589482235.0,286047004.4,Y
1589482235.9,286047004.4,P
1589482255.8,286047001.6,N
1589482275.6,286047003.4,N
1589482295.5,286047002.0,N
1589482315.3,286047002.4,N
1589482335.1,286047002.3,N
1589482355.9,286047000.3,N
1589482375.7,286047000.5,N
1589482395.5,286046998.5,N
1589482415.4,286047001.2,N
1589482435.2,286046999.8,N
1589482455.1,286047000.9,N
1589482456.0,286047000.9,N
1589482475.8,286047001.0,N
1589482495.6,286047000.2,N
1589482515.5,286047001.2,N
1589482535.3,286046998.7,N
1589482555.1,286046998.5,N
1589482575.9,286046999.1,N
1589482595.7,286046997.8,N
1589482615.6,286046996.6,N
1589482635.4,286046996.7,N
1589482655.2,286046999.4,N
1589482675.1,286046999.3,N
1589482676.0,286046999.3,N
1589482695.8,286046998.6,N
1589482715.6,286046999.5,N
1589482735.5,286046998.9,N
1589482755.3,286046996.9,N
1589482775.2,286046998.3,N
1589482795.9,286046996.5,N
